NOAA-17
1 27453U 02032A 12074.89574152 .00000205 00000-0 10616-3 0 06365
2 27453 098.3468 106.6555 0012730 074.7459 285.5123 14.24404058505332
NOAA-18
1 28654U 05018A 12074.72605978 .00000381 00000-0 23453-3 0 01104
2 28654 099.0357 032.0811 0015133 061.9532 298.3160 14.11618001351230
NOAA-19
1 33591U 09005A 12074.78359563 .00000033 00000-0 42698-4 0 03000
2 33591 098.8574 015.7804 0013310 290.2496 069.7245 14.11305935159694
HUBBLE
1 20580U 90037B 12075.19440738 .00001841 00000-0 12364-3 0 9639
2 20580 028.4707 038.5295 0003689 141.7876 218.2985 15.02272664 580
ISS
1 25544U 98067A 12075.92117777 .00020886 00000-0 26510-3 0 1922
2 25544 051.6400 229.6734 0016994 159.6837 338.9582 15.59224002763474
CO-58
1 28895U 05043F 12075.63988014 .00000694 00000-0 15172-3 0 1235
2 28895 097.9310 305.9593 0018973 086.1117 274.2241 14.60521195340002
FALCON
1 30776U 07006E 12074.59617009 .00004009 00000-0 26608-3 0 03146
2 30776 035.4320 134.2883 0002830 268.4167 091.6225 15.06833062275977
MAST
1 31126U 07012K 12075.57095659 .00000474 00000-0 11579-3 0 4080
2 31126 097.8785 092.1373 0094886 042.8001 318.0556 14.54064589260668
CAPE1
1 31130U 07012P 12075.52748953 .00000786 00000-0 18878-3 0 4199
2 31130 097.8850 088.5415 0102608 055.6543 305.4289 14.52810023260176
COMPASS
1 32787U 08021E 12074.66012629 .00001972 00000-0 24505-3 0 02502
2 32787 097.8097 138.0659 0015604 014.5083 345.6578 14.83619714209797
AAUSAT2
1 32788U 08021F 12074.91901052 .00001947 00000-0 24031-3 0 02436
2 32788 097.8127 138.6509 0014977 016.2406 343.9282 14.83909763209858
DO-64
1 32789U 08021G 12075.65916429 .00003577 00000-0 42340-3 0 2550
2 32789 097.8218 141.0650 0014753 008.8342 351.3157 14.85141211209990
CO-66
1 32791U 08021J 12075.69417605 .00001866 00000-0 23496-3 0 2436
2 32791 097.8117 138.8900 0015698 011.4899 348.6613 14.83110748209882
RS-30
1 32953U 08025A 12075.84304605 .00000010 00000-0 00000 0 0 6102
2 32953 082.5072 353.1855 0018848 147.9003 212.3230 12.43021499172964
TACSAT-3
1 35001U 09028A 12075.76403871 .00179862 00000-0 86027-3 0 9055
2 35001 040.4464 290.6824 0011898 299.1689 060.8034 15.81312926159650
PHARMSAT
1 35002U 09028B 12075.84340584 .00066452 00000-0 57160-3 0 8275
2 35002 040.4654 297.3866 0000843 186.3767 173.7079 15.68339454159590
METEOR-M
1 35865U 09049A 12075.69766118 .00000004 00000-0 21445-4 0 2333
2 35865 098.6668 131.7288 0002156 344.2274 015.8800 14.21857499129310
RS-38
1 35869U 09049E 12075.80269290 .00000067 00000-0 49847-4 0 2413
2 35869 098.6630 131.8419 0004279 333.4482 026.6458 14.22059051129340
JUGNU
1 37839U 11058B 12074.61933390 .00000620 00000-0 19019-3 0 01097
2 37839 019.9616 211.1157 0019327 261.2510 098.5712 14.12032473021867
SRMSAT
1 37841U 11058D 12074.75761561 .00000264 00000-0 00000-0 0 01107
2 37841 019.9725 213.2993 0012506 230.8327 129.0993 14.10122720021855
RAX-2
1 37853U 11061D 12074.98659191 .00004065 00000-0 33275-3 0 01324
2 37853 101.7173 072.3394 0249943 259.1836 098.1143 14.79167404020473
AUBIESAT
1 37854U 11061E 12075.77515088 .00004326 00000-0 34811-3 0 1258
2 37854 101.7195 073.6201 0251165 256.2954 101.0167 14.79498735 20572
HRBE
1 37855U 11061F 12074.96932450 .00004595 00000-0 37002-3 0 01326
2 37855 101.7215 072.4305 0251341 258.6597 098.6288 14.79383672020458
RS-39
1 38051U 11062C 12075.92525311 .00008291 00000-0 36364-3 0 1548
2 38051 051.6447 243.7325 0011453 062.3551 094.6901 15.22748450 7754
